Location: Kapuskasing
(49.3803°N, 82.4001°W)
Time: 10:33:03
(UTC-04:00)

RS-44 - Pass Details

Date: 19 March 2026
Orbit: 1175 x 1510 km, 82.5° (Epoch: 11 April)

Event Time Altitude Azimuth Distance (km) Brightness Sun altitude
Rises 02:34:23 0° 351° (N) 4,414 ? -39.6°
Reaches altitude 10° 02:37:18 10° 357° (N) 3,481 ? -39.5°
Maximum altitude 02:45:21 47° 70° (ENE) 1,857 ? -39.0°
Enters shadow 02:46:49 44° 96° (E) 1,947 ? -38.9°
